Le nostre stazioni meteo in Italia

Pubblicità
Il mio iltempo24.it
Bournemouth Airport, Gran Bretagna (3862): Temperatura & dewpoint: 10.01.2017 14:00:00 - 16.01.2017 14:00:00 (GMT)Bournemouth Airport, Gran Bretagna (3862): Temperatura -20cm & Temperatura -100cm: 10.01.2017 14:00:00 - 16.01.2017 14:00:00 (GMT)Bournemouth Airport, Gran Bretagna (3862): velocità del vento & gusts: 10.01.2017 14:00:00 - 16.01.2017 14:00:00 (GMT)Bournemouth Airport, Gran Bretagna (3862): direzione del vento: 10.01.2017 14:00:00 - 16.01.2017 14:00:00 (GMT)Bournemouth Airport, Gran Bretagna (3862): reduced air pressure: 10.01.2017 14:00:00 - 16.01.2017 14:00:00 (GMT)Bournemouth Airport, Gran Bretagna (3862): visibility: 10.01.2017 14:00:00 - 16.01.2017 14:00:00 (GMT)Bournemouth Airport, Gran Bretagna (3862): ore di luce: 10.01.2017 14:00:00 - 16.01.2017 14:00:00 (GMT)Bournemouth Airport, Gran Bretagna (3862): precipitazioni: 10.01.2017 14:00:00 - 16.01.2017 14:00:00 (GMT)
Data & Tempo tt [°C] td [°C] tt -20cm [°C] tt -100cm [°C] ff [km/h] ff [kn] fx [km/h] fx [kn] dd ppp [hPa] vv [km] sd [min] rr [mm]
16.01.2017 14:00:00 7,4 7,0 - - 9 5 - - SE 1027,1 2,8 0 0,6
16.01.2017 13:00:00 7,5 7,2 - - 9 5 - - SE 1026,8 2,5 0 0,8
16.01.2017 12:00:00 7,4 7,1 - - 9 5 - - SE 1027,0 2,0 0 1,2
16.01.2017 11:00:00 7,5 7,2 - - 15 8 - - SE 1027,0 1,9 0 1,2
16.01.2017 10:00:00 9,1 8,8 - - 8 4 - - NO 1026,8 1,7 0 0,4
16.01.2017 09:00:00 8,7 8,4 6,0 6,7 5 3 - - ONO 1026,5 9 0 0,0
16.01.2017 08:00:00 8,5 8,2 - - 8 4 - - NO 1026,2 7 0 0,0
16.01.2017 07:00:00 8,5 8,2 - - 9 5 - - NO 1025,7 5 0 0,2
16.01.2017 06:00:00 8,6 8,2 - - 11 6 - - ONO 1025,6 4,3 0 0,0
16.01.2017 05:00:00 8,7 8,1 - - 11 6 - - ONO 1025,4 19 0 0,0
16.01.2017 04:00:00 8,7 8,1 - - 9 5 - - ONO 1025,3 17 0 0,0
16.01.2017 03:00:00 8,6 8,2 - - 11 6 - - ONO 1025,3 18 0 0,0
16.01.2017 02:00:00 8,5 8,1 - - 11 6 - - NO 1025,2 16 0 0,0
16.01.2017 01:00:00 8,4 8,1 - - 9 5 - - NO 1025,1 4,9 0 0,0
16.01.2017 00:00:00 8,8 7,7 - - 13 7 - - NNO 1025,2 23 - 0,0
15.01.2017 23:00:00 8,8 7,3 - - 15 8 - - NO 1025,0 24 0 0,0
15.01.2017 22:00:00 8,5 7,1 - - 11 6 - - ONO 1024,6 20 0 0,0
15.01.2017 21:00:00 9,1 7,2 - - 9 5 - - O 1024,2 10 0 0,0
15.01.2017 20:00:00 8,9 7,2 - - 15 8 - - NO 1023,8 10 0 0,0
15.01.2017 19:00:00 8,8 7,4 - - 15 8 - - NO 1023,4 19 0 0,0
15.01.2017 18:00:00 8,7 7,2 - - 22 12 - - NO 1023,0 10 0 0,2
15.01.2017 17:00:00 9,2 7,6 - - 22 12 - - NO 1022,8 16 0 0,0
15.01.2017 16:00:00 9,5 7,4 - - 21 11 - - NO 1022,9 10 0 0,0
15.01.2017 15:00:00 9,6 7,3 - - 28 15 - - ONO 1022,6 10 0 0,0
15.01.2017 14:00:00 9,8 7,5 - - 28 15 - - ONO 1022,6 10 6 0,0
15.01.2017 13:00:00 9,2 7,1 - - 22 12 - - ONO 1022,9 10 0 0,0
15.01.2017 12:00:00 8,4 6,7 - - 22 12 - - ONO 1023,5 10 0 0,0
15.01.2017 11:00:00 7,6 6,1 - - 18 10 - - ONO 1024,1 10 0 0,0
15.01.2017 10:00:00 6,9 5,9 - - 16 9 - - ONO 1024,3 10 0 0,2
15.01.2017 09:00:00 6,4 5,7 5,2 6,7 13 7 - - O 1024,5 9 0 0,0
15.01.2017 08:00:00 6,0 5,2 - - 13 7 - - O 1024,7 7 0 0,0
15.01.2017 07:00:00 5,8 5,0 - - 11 6 - - O 1024,9 16 0 0,2
15.01.2017 06:00:00 6,0 5,1 - - 16 9 - - ONO 1025,0 13 0 0,2
15.01.2017 05:00:00 6,0 4,6 - - 13 7 - - ONO 1024,9 18 0 0,0
15.01.2017 04:00:00 5,9 4,6 - - 15 8 - - ONO 1024,9 17 0 0,0
15.01.2017 03:00:00 5,7 4,5 - - 15 8 - - ONO 1025,1 19 0 0,0
15.01.2017 02:00:00 5,0 4,0 - - 11 6 - - ONO 1024,9 15 0 0,0
15.01.2017 01:00:00 4,8 3,7 - - 11 6 - - ONO 1025,2 15 0 0,0
15.01.2017 00:00:00 4,2 3,2 - - 13 7 - - ONO 1025,1 20 - 0,0
14.01.2017 23:00:00 3,8 3,1 - - 13 7 - - ONO 1024,9 16 0 0,0
14.01.2017 22:00:00 3,3 2,5 - - 15 8 - - ONO 1024,7 10 0 0,0
14.01.2017 21:00:00 3,6 2,4 - - 13 7 - - ONO 1024,5 10 0 0,0
14.01.2017 20:00:00 4,4 2,7 - - 15 8 - - ONO 1024,0 10 0 0,0
14.01.2017 19:00:00 5,7 3,5 - - 16 9 - - NO 1023,7 10 0 0,0
14.01.2017 18:00:00 6,1 3,4 - - 15 8 - - NO 1023,3 10 0 0,0
14.01.2017 17:00:00 6,7 3,6 - - 21 11 - - NO 1022,7 10 0 0,0
14.01.2017 16:00:00 7,3 3,5 - - 21 11 - - NO 1022,4 26 36 0,0
14.01.2017 15:00:00 7,0 2,8 - - 24 13 - - NO 1022,0 10 6 0,0
14.01.2017 14:00:00 8,2 3,2 - - 26 14 - - NO 1021,7 30 24 0,0
14.01.2017 13:00:00 8,3 3,8 - - 24 13 - - ONO 1021,8 28 60 0,0
14.01.2017 12:00:00 7,4 3,3 - - 24 13 - - NO 1021,8 10 60 0,0
14.01.2017 11:00:00 6,1 3,4 - - 22 12 - - ONO 1022,1 30 24 0,0
14.01.2017 10:00:00 4,9 2,7 - - 16 9 - - ONO 1021,9 10 6 0,0
14.01.2017 09:00:00 3,3 1,7 5,2 7,0 18 10 - - ONO 1021,5 10 0 0,0
14.01.2017 08:00:00 3,7 1,6 - - 24 13 - - ONO 1021,1 10 0 0,0
14.01.2017 07:00:00 2,2 0,8 - - 13 7 - - O 1020,6 30 0 0,0
14.01.2017 06:00:00 -0,3 -1,3 - - 15 8 - - O 1020,7 30 0 0,0
14.01.2017 05:00:00 1,8 -0,2 - - 15 8 - - ONO 1020,8 35 0 0,0
14.01.2017 04:00:00 1,6 -0,2 - - 13 7 - - ONO 1020,9 30 0 0,0
14.01.2017 03:00:00 1,8 -0,3 - - 18 10 - - ONO 1021,0 30 0 0,0
14.01.2017 02:00:00 1,7 -0,7 - - 18 10 - - NO 1020,7 35 0 0,0
14.01.2017 01:00:00 1,7 -0,7 - - 18 10 - - NO 1020,4 35 0 0,0
14.01.2017 00:00:00 2,0 -0,6 - - 22 12 - - NO 1020,1 10 - 0,0
13.01.2017 23:00:00 2,1 -1,1 - - 26 14 - - NO 1019,6 10 0 0,0
13.01.2017 22:00:00 1,8 -1,5 - - 21 11 - - ONO 1019,0 10 0 0,0
13.01.2017 21:00:00 1,9 -1,3 - - 18 10 - - ONO 1018,6 10 0 0,0
13.01.2017 20:00:00 2,5 -1,4 - - 18 10 - - ONO 1018,6 10 0 0,0
13.01.2017 19:00:00 3,7 -0,9 - - 21 11 - - NO 1017,6 10 0 0,0
13.01.2017 18:00:00 4,1 -0,8 - - 28 15 - - NO 1016,9 10 0 0,0
13.01.2017 17:00:00 4,3 -0,8 - - 24 13 50 27 NO 1016,3 10 0 0,0
13.01.2017 16:00:00 5,2 -0,2 - - 34 18 54 29 ONO 1015,8 10 6 0,0
13.01.2017 15:00:00 6,2 0,1 - - 34 18 52 28 NO 1014,7 30 54 0,0
13.01.2017 14:00:00 6,1 -0,7 - - 39 21 63 34 NO 1013,7 10 60 0,0
13.01.2017 13:00:00 5,8 -0,6 - - 39 21 76 41 NO 1013,2 30 60 0,0
13.01.2017 12:00:00 5,5 -0,9 - - 42 23 72 39 NO 1012,8 10 60 0,0
13.01.2017 11:00:00 5,1 -0,9 - - 39 21 59 32 ONO 1012,6 30 54 0,0
13.01.2017 10:00:00 4,1 -1,3 - - 35 19 52 28 NO 1012,3 35 42 0,0
13.01.2017 09:00:00 3,0 -0,9 6,0 7,0 28 15 - - ONO 1012,1 35 0 0,0
13.01.2017 08:00:00 1,3 -1,0 - - 18 10 55 30 ONO 1011,6 50 0 0,0
13.01.2017 07:00:00 3,1 -1,9 - - 34 18 52 28 NO 1010,8 50 0 0,0
13.01.2017 06:00:00 2,4 -0,2 - - 24 13 - - NO 1009,6 50 0 0,0
13.01.2017 05:00:00 1,8 -0,1 - - 22 12 - - NO 1008,2 45 0 0,0
13.01.2017 04:00:00 1,2 -0,2 - - 15 8 - - ONO 1006,5 35 0 0,0
13.01.2017 03:00:00 0,9 -0,1 - - 15 8 - - ONO 1005,7 40 0 0,0
13.01.2017 02:00:00 0,1 -1,0 - - 16 9 - - O 1004,7 35 0 0,0
13.01.2017 01:00:00 0,1 -1,6 - - 18 10 - - O 1003,9 40 0 0,0
13.01.2017 00:00:00 -0,1 -2,3 - - 13 7 - - O 1003,3 40 - 0,0
12.01.2017 23:00:00 1,8 -1,7 - - 21 11 - - ONO 1002,6 10 0 0,0
12.01.2017 22:00:00 2,1 -1,5 - - 22 12 - - ONO 1001,9 10 0 0,0
12.01.2017 21:00:00 2,7 -0,7 - - 31 17 52 28 NO 1000,9 10 0 0,0
12.01.2017 20:00:00 2,7 0,6 - - 29 16 46 25 ONO 999,6 10 0 0,0
12.01.2017 19:00:00 2,2 0,5 - - 26 14 - - NO 998,3 55 0 0,0
12.01.2017 18:00:00 2,1 0,7 - - 34 18 70 38 NNO 997,2 55 0 0,6
12.01.2017 17:00:00 2,6 1,8 - - 35 19 54 29 NNO 995,1 7 0 3,0
12.01.2017 16:00:00 2,9 2,0 - - 26 14 - - NNO 994,4 5 0 5,8
12.01.2017 15:00:00 6,2 5,8 - - 8 4 - - - 995,4 4,1 0 4,4
12.01.2017 14:00:00 6,8 6,2 - - 2 1 - - - 998,2 4,0 0 4,0
12.01.2017 13:00:00 6,9 6,4 - - 4 2 - - SO 1001,5 5 0 2,0
12.01.2017 12:00:00 7,3 6,3 - - 9 5 - - SSO 1004,2 7 0 0,6
12.01.2017 11:00:00 7,4 6,0 - - 9 5 - - SSO 1006,7 10 0 0,2
12.01.2017 10:00:00 7,4 5,0 - - 9 5 - - SO 1008,9 10 0 0,0
12.01.2017 09:00:00 7,0 4,7 6,5 7,0 8 4 - - OSO 1010,3 22 0 0,0
12.01.2017 08:00:00 7,0 4,3 - - 15 8 - - OSO 1011,4 10 0 0,0
12.01.2017 07:00:00 7,0 4,0 - - 15 8 - - OSO 1012,4 10 0 0,0
12.01.2017 06:00:00 6,2 3,5 - - 11 6 - - SO 1013,4 20 0 0,0
12.01.2017 05:00:00 6,6 3,1 - - 15 8 - - OSO 1014,0 24 0 0,0
12.01.2017 04:00:00 6,4 3,1 - - 11 6 - - OSO 1015,2 21 0 0,0
12.01.2017 03:00:00 6,3 2,8 - - 9 5 - - OSO 1016,2 22 0 0,0
12.01.2017 02:00:00 6,4 2,8 - - 15 8 - - O 1016,5 23 0 0,0
12.01.2017 01:00:00 6,5 2,5 - - 11 6 - - OSO 1017,5 21 0 0,0
12.01.2017 00:00:00 5,8 2,2 - - 11 6 - - O 1017,8 10 - 0,0
11.01.2017 23:00:00 5,9 1,9 - - 11 6 - - O 1017,4 10 0 0,0
11.01.2017 22:00:00 4,8 1,4 - - 16 9 - - O 1017,6 10 0 0,0
11.01.2017 21:00:00 4,7 1,2 - - 18 10 - - O 1017,2 10 0 0,0
11.01.2017 20:00:00 5,8 1,3 - - 22 12 - - O 1017,3 10 0 0,0
11.01.2017 19:00:00 6,2 1,0 - - 16 9 - - ONO 1017,2 17 0 0,0
11.01.2017 18:00:00 6,3 1,4 - - 21 11 - - ONO 1016,8 10 0 0,0
11.01.2017 17:00:00 7,0 1,1 - - 21 11 - - ONO 1016,2 10 0 0,0
11.01.2017 16:00:00 8,1 1,2 - - 26 14 - - ONO 1015,2 20 18 0,0
11.01.2017 15:00:00 9,0 3,4 - - 34 18 55 30 NO 1014,5 19 24 0,0
11.01.2017 14:00:00 9,5 4,3 - - 34 18 55 30 NO 1013,6 10 54 0,0
11.01.2017 13:00:00 10,1 4,6 - - 35 19 57 31 ONO 1013,1 18 36 0,0
11.01.2017 12:00:00 10,1 4,8 - - 29 16 54 29 ONO 1012,7 16 30 0,0
11.01.2017 11:00:00 10,0 5,4 - - 35 19 52 28 ONO 1012,7 10 54 0,0
11.01.2017 10:00:00 10,6 6,4 - - 31 17 55 30 ONO 1011,9 10 42 0,0
11.01.2017 09:00:00 10,3 6,8 6,5 7,0 22 12 - - ONO 1011,1 22 0 0,0
11.01.2017 08:00:00 11,5 7,5 - - 16 9 - - ONO 1010,6 10 0 0,0
11.01.2017 07:00:00 11,1 8,2 - - 21 11 - - ONO 1010,4 10 0 0,0
11.01.2017 06:00:00 10,3 9,5 - - 16 9 - - OSO 1010,1 16 0 0,2
11.01.2017 05:00:00 10,3 9,3 - - 15 8 - - OSO 1010,2 24 0 0,0
11.01.2017 04:00:00 8,1 7,7 - - 16 9 - - O 1011,1 20 0 0,0
11.01.2017 03:00:00 6,5 4,9 - - 9 5 - - O 1011,3 14 0 0,0
11.01.2017 02:00:00 7,5 6,7 - - 9 5 - - SO 1011,7 14 0 0,0
11.01.2017 01:00:00 7,0 6,1 - - 9 5 - - OSO 1013,0 16 0 0,0
11.01.2017 00:00:00 8,1 6,7 - - 9 5 - - OSO 1013,3 10 - 0,0
10.01.2017 23:00:00 9,0 7,9 - - 9 5 - - O 1013,4 10 0 0,0
10.01.2017 22:00:00 8,6 7,8 - - 11 6 - - O 1013,2 18 0 0,0
10.01.2017 21:00:00 8,9 8,3 - - 9 5 - - O 1013,7 10 0 0,0
10.01.2017 20:00:00 8,6 8,2 - - 9 5 - - OSO 1013,6 10 0 0,2
10.01.2017 19:00:00 8,1 7,6 - - 9 5 - - OSO 1013,9 6 0 0,0
10.01.2017 18:00:00 8,3 6,4 - - 15 8 - - O 1014,1 15 0 0,0
10.01.2017 17:00:00 8,3 6,4 - - 13 7 - - O 1013,6 10 0 0,0
10.01.2017 16:00:00 8,7 6,2 - - 9 5 - - ONO 1013,4 10 0 0,0
10.01.2017 15:00:00 8,7 6,1 - - 22 12 - - ONO 1013,2 10 18 0,0
10.01.2017 14:00:00 8,8 5,3 - - 16 9 - - ONO 1013,1 10 0 0,0

tt = Temperatura
td = dewpoint
tt -20cm = Temperatura -20cm
tt -100cm = Temperatura -100cm
ff = velocità del vento
fx = gusts
dd = direzione del vento
ppp = reduced air pressure
vv = visibility
sd = ore di luce
rr = precipitazioni

Stazioni seguenti

WeatherPro
AMSI
MeteoEarth